weather.gov     
National Weather Service

Regional Weather Roundup
NWS Homepage
This page is being discontinued on March 12, 2014.
The same data is available at this site. Please update your bookmarks.
Thank you, and we apologize for the inconvenience.
Please send an email to SR-SRH.Webmaster@noaa.gov with any concerns.


Current Version
Previous Version:    01  02  03  04  05  06  07  08  09  10  11  12  13  14  15  16  17  18  19  20  21  22  23  24  25  26  27  28  29  30  
[Printable]
779
ASUS44 KHUN 190710
RWRHUN

WEATHER ROUNDUP FOR THE TENNESSEE VALLEY
NATIONAL WEATHER SERVICE HUNTSVILLE AL
200 AM CDT FRI SEP 19 2014

ALZ001>004-190800-
NORTHWEST ALABAMA

CITY           SKY/WX    TMP DP  RH WIND       PRES   REMARKS
SHOALS AIRPORT MOCLDY    68  66  93 CALM      30.02F
SHOALS TVA RES   N/A     68 N/A N/A MISG        N/A
$$

ALZ005>007-016-190800-
NORTH CENTRAL ALABAMA

CITY           SKY/WX    TMP DP  RH WIND       PRES   REMARKS
DECATUR AP     PTCLDY    67  61  81 CALM      30.03S
HUNTSVILLE AP  PTCLDY    68  62  81 CALM      30.02F
HUN NWS/UAH      N/A     68  59  74 N1          N/A
MERIDIANVILLE  MOCLDY    63  57  82 CALM      30.04R
VINEMONT AP    FAIR      67  64  91 N5        30.05F
$$

ALZ008>010-190800-
NORTHEAST ALABAMA

CITY           SKY/WX    TMP DP  RH WIND       PRES   REMARKS
ALBERTVILLE    CLOUDY    68  66  94 NW3       30.02R
FORT PAYNE     MOCLDY    61  57  88 CALM      30.02S
SCOTTSBORO AP  MOCLDY    64  63  94 NE3       30.03S
SCOTTSBORO HCN   N/A     64 N/A N/A MISG        N/A
VALLEY HEAD      N/A     63 N/A N/A MISG        N/A
$$

TNZ076-096-097-190800-
SOUTHEASTERN MIDDLE TENNESSEE

CITY           SKY/WX    TMP DP  RH WIND       PRES   REMARKS
FAYETTEVILLE   CLEAR     63  57  82 CALM      30.03S
TULLAHOMA      PTCLDY    63  59  88 CALM      30.05S
WINCHESTER     MOCLDY    63  57  82 CALM      30.04S
$$

...SURROUNDING SITES...

CITY           SKY/WX    TMP DP  RH WIND       PRES   REMARKS
ATLANTA        CLOUDY    71  66  84 CALM      30.03R
ANNISTON       LGT RAIN  72  65  78 N6        30.01S
BIRMINGHAM     CLOUDY    71  64  78 NW5       30.03F
CHATTANOOGA    PTCLDY    65  60  84 N5        30.04S
CORINTH        FOG       68  66  94 CALM      30.00F VSB 1/2
DALTON         MOCLDY    61  61 100 CALM      30.03S
GADSDEN        CLOUDY    70  61  73 CALM      30.01S
GOLDEN TRNGL   CLOUDY    70  64  83 W5        29.97F
HALEYVILLE     FAIR      66  66 100 CALM      30.04F
JACKSON TN     CLEAR     63  60  90 NE3       30.02S
LEWISBURG      MOCLDY    60  58  93 CALM      30.03S
MEMPHIS        CLOUDY    70  66  87 E7        30.00S
MURFREESBORO   FAIR      61  58  90 CALM      30.04R
NASHVILLE      PTCLDY    62  59  90 NE6       30.04F
OXFORD MS      FAIR      64  63  94 CALM      30.01F FOG
ROME           MOCLDY    64  61  90 CALM      30.02S
SAVANNAH       CLEAR     64  64 100 CALM      30.01F
TUPELO         CLOUDY    68  66  93 CALM      29.99F
TUSCALOOSA     LGT RAIN  70  68  93 NE5       29.98F
$$

...GULF COAST WEATHER...

CITY           SKY/WX    TMP DP  RH WIND       PRES   REMARKS
GULFPORT       LGT RAIN  73  69  87 N3        29.93F
PASCAGOULA     CLOUDY    71  68  90 CALM      29.93F
MOBILE         CLOUDY    71  69  93 N6        29.95F
GULF SHORES    CLOUDY    73  71  91 N7        29.92S
PENSACOLA      CLOUDY    77  74  90 N5        29.91F
DESTIN         CLOUDY    81  75  82 N3        29.92F
PANAMA CITY    CLOUDY    76  74  93 CALM      29.93S
APPALACHICOLA  CLOUDY    77  71  82 CALM      29.91F
$$





U.S. Dept. of Commerce
NOAA National Weather Service
1325 East West Highway
Silver Spring, MD 20910
E-mail: w-nws.webmaster@noaa.gov
Page last modified: May 16, 2007
NATIONAL WEATHER SERVICE: for Safety, for Work, for Fun - FOR LIFE